User: anonymous
Location: Unspecified
(0.0000°N, 0.0000°E)
Time: 23:30:51
(UTC+02:00)
Language:

ATLAS 2AS CENTAUR R/B - Orbit

View from above orbital plane
View from above orbital plane
View from above satellite
View from above satellite

Ground track
Ground track

The orbit data is extracted from the following two-line orbital elements,

1 28096U 03054B   14109.98108267 0.00000110  00000-0  16771-3 0    03
2 28096  63.6690  94.8912 0243000 298.3625  61.6375 13.40737362    08
Epoch (UTC): 19 April 2014 23:32:45
Eccentricity: 0.0243000
inclination: 63.6690°
perigee height: 924 km
apogee height: 1288 km
right ascension of ascending node: 94.8912°
argument of perigee: 298.3625°
revolutions per day: 13.40737362
mean anomaly at epoch: 61.6375°
orbit number at epoch: 0

The dashed part of the orbit path shows where the satellite is in the earth's shadow,  

DLR